TimeMDT,TemperatureF,Dew PointF,Humidity,Sea Level PressureIn,VisibilityMPH,Wind Direction,Wind SpeedMPH,Gust SpeedMPH,PrecipitationIn,Events,Conditions,WindDirDegrees,DateUTC
12:53 AM,45.0,28.0,52,29.91,10.0,WSW,5.8,-,N/A,,Clear,240,2012-10-29 06:53:00
1:53 AM,42.1,28.9,60,29.92,10.0,WSW,5.8,-,N/A,,Clear,250,2012-10-29 07:53:00
2:53 AM,43.0,28.0,56,29.92,10.0,Variable,5.8,-,N/A,,Clear,0,2012-10-29 08:53:00
3:53 AM,45.0,28.0,52,29.90,10.0,WNW,3.5,-,N/A,,Clear,300,2012-10-29 09:53:00
4:53 AM,43.0,28.0,56,29.93,10.0,WSW,8.1,-,N/A,,Mostly Cloudy,250,2012-10-29 10:53:00
5:53 AM,46.0,30.0,54,29.94,10.0,SW,6.9,-,N/A,,Overcast,230,2012-10-29 11:53:00
6:53 AM,48.9,28.9,46,29.94,10.0,SW,4.6,-,N/A,,Overcast,230,2012-10-29 12:53:00
7:53 AM,48.0,28.9,48,29.96,10.0,West,4.6,-,N/A,,Overcast,270,2012-10-29 13:53:00
8:53 AM,51.1,30.9,46,29.96,10.0,WNW,3.5,-,N/A,,Clear,290,2012-10-29 14:53:00
9:53 AM,57.0,34.0,42,29.95,10.0,Calm,Calm,-,N/A,,Clear,0,2012-10-29 15:53:00
10:53 AM,59.0,30.0,33,29.94,10.0,SSE,6.9,-,N/A,,Clear,160,2012-10-29 16:53:00
11:53 AM,60.1,30.0,32,29.93,10.0,ESE,8.1,-,N/A,,Scattered Clouds,120,2012-10-29 17:53:00
12:53 PM,59.0,30.9,35,29.91,10.0,SE,6.9,-,N/A,,Partly Cloudy,130,2012-10-29 18:53:00
1:53 PM,59.0,32.0,36,29.90,10.0,SE,3.5,-,N/A,,Mostly Cloudy,140,2012-10-29 19:53:00
2:53 PM,57.9,34.0,41,29.89,10.0,ESE,5.8,-,N/A,,Overcast,120,2012-10-29 20:53:00
3:53 PM,61.0,34.0,36,29.89,10.0,Calm,Calm,-,N/A,,Partly Cloudy,0,2012-10-29 21:53:00
4:53 PM,61.0,35.1,38,29.91,10.0,Calm,Calm,-,N/A,,Overcast,0,2012-10-29 22:53:00
5:53 PM,53.1,35.1,50,29.94,6.0,WNW,3.5,-,N/A,,Haze,290,2012-10-29 23:53:00
6:04 PM,55.4,33.8,44,30.00,2.5,Calm,Calm,-,N/A,,Haze,0,2012-10-30 00:04:00
6:12 PM,55.4,33.8,44,30.01,6.0,NW,3.5,-,N/A,,Haze,310,2012-10-30 00:12:00
6:53 PM,52.0,34.0,50,29.96,10.0,NNW,5.8,-,N/A,,Partly Cloudy,330,2012-10-30 00:53:00
7:53 PM,48.9,34.0,56,29.97,10.0,WSW,3.5,-,N/A,,Clear,240,2012-10-30 01:53:00
8:53 PM,48.0,34.0,58,29.98,10.0,WSW,9.2,-,N/A,,Clear,240,2012-10-30 02:53:00
9:53 PM,48.0,33.1,56,29.97,10.0,Calm,Calm,-,N/A,,Clear,0,2012-10-30 03:53:00
10:53 PM,45.0,30.9,58,29.98,10.0,West,4.6,-,N/A,,Clear,260,2012-10-30 04:53:00
11:53 PM,55.9,28.0,34,29.95,10.0,West,4.6,-,N/A,,Clear,260,2012-10-30 05:53:00